Torna al catalogo

KINEIS-4A

AttivoComunicazioniSSO
NORAD 63303·PAYLOAD·🇫🇷 France

Lanciato Mar 18, 2025 da Rocket Lab Launch Complex 1

Loading…

Prossimi Passaggi (prossime 24 ore)

TLE

AggiornatoSource: Space-Track

Epoca: Sep 14, 2026, 19:19 UTC

1 63303U 25056D   26257.80533204  .00001125  00000-0  18567-3 0  9999
2 63303  97.9208  19.4897 0001992  42.4914 317.6448 14.72285416 80310

Traccia KINEIS-4A in tempo reale con AllMySat

Download on the App Store